Weather in Bolshaya Rakovka

Russia / Samara Oblast     53°41′37″N   50°37′17″E
temp.,
°C
wind,
m/s
gust,
m/s
humid.,
%
clouds,
%
prec.,
mm/h
press.,
hPa
HPBL,
m
28 february, sun
sun2801:00−12nnw6119392 0.1 1000346
04:00−14nnw6129396 0.1 1002363
07:00−16nnw61294100 0.1 1004341
10:00−16nw61194100 0.1 1006342
13:00−14nw6992100 0.1 1008428
16:00−13nw6992100 0.1 1010477
19:00−14nnw4109498 0.2 1012386
22:00−15nnw499497 0.3 1014308
1 march, mon
mon101:00−18nw369779 0.0 1016116
04:00−20nw369876 0.1 1018102
07:00−22nw339865 0.0 101956
10:00−20nnw369558 0.0 1022229
13:00−17nw359354 0.0 1022271
16:00−15wnw369266 0.0 1022344
19:00−20w239858 0.0 102220
22:00−21sw229729 0.0 102120
2 march, tue
tue201:00−19s339847 0.0 101929
04:00−17s359873 0.0 1016119
07:00−14ssw41096100 0.0 1012284
10:00−10ssw61194100 0.3 1009431
13:00−6ssw71295100 1.1 1005618
16:00−3ssw61296100 2.4 1002689
19:00−2ssw51297100 1.8 1000561
22:00−1w4898100 2.8 999361
3 march, wed
wed301:00−4w489692 0.1 998190
04:00−4w489691 0.1 999192
07:00−3wnw4897100 0.1 1000272
10:00−2nw5893100 0.4 1002527
13:00−2nw4792100 0.1 1003551
16:00−1nw688798 0.1 1004745
19:00−3nw4894100 0.1 1005422
22:00−4nw5119596 0.3 1007410
4 march, thu
thu401:00−7nw5119391 0.1 1009310
04:00−9nw5109585 0.1 1011266
07:00−12wnw489674 0.0 1012144
10:00−10w489470 0.1 1014274
13:00−6wsw588977 0.0 1013424
16:00−5sw6108980 0.0 1011616
19:00−4sw7159099 0.0 1009710
22:00−3sw81588100 0.1 1008771